Flag for Canada Weather past 2 weeks in Hopedale, Newfoundland and Labrador, Canada

Now
33 °F

Chilly.


Feels Like: 22 °F
Forecast: 31 / 36 °F
Wind: 18 mph from Northwest

Location: Hopedale

Current Time: Oct 1, 2014 at 3:00:04 AM

Latest Report: Oct 1, 2014 at 2:00 AM


Visibility: N/A

Pressure: 29.94 "Hg

Humidity: 53%

Dew point: 17 °F

Location of HopedaleLocation

Historic Weather in Hopedale — Graph

°F

Hopedale temperature yesterday

Maximum temperature yesterday: 44 °F (at 5:00 PM)
Minimum temperature yesterday: 33 °F (at 11:00 PM)
Average temperature yesterday: 38 °F

Past Weeks' High & Low Weather Summary

 TemperatureHumidityPressure
High55 °F (Sep 25, 12:00 PM)100% (Sep 23, 5:00 AM)30.07 "Hg (Sep 23, 5:00 AM)
Low31 °F (Sep 29, 3:00 AM)35% (Sep 18, 5:00 PM)29.13 "Hg (Sep 23, 12:00 AM)
Average41 °F75%29.74 "Hg
* Reported Sep 16 1:00 AM — Oct 1 1:00 AM, Hopedale, Weather by CustomWeather, © 2014

Note: Actual official high and low records may vary slightly from our data, if they occured in-between our weather recording intervals... More about our weather records

Advertising

Hopedale weather history for previous 24 hours

 ConditionsComfort  
Time TempWeatherWind HumidityBarometerVisibility
1:00 AM
Oct 1
31 °FChilly.21 mph59%29.91 "HgN/A
12:00 AM32 °FChilly.20 mph60%29.87 "HgN/A
11:00 PM
Sep 30
33 °FChilly.25 mph64%29.83 "HgN/A
10:00 PM34 °FChilly.21 mph62%29.79 "HgN/A
9:00 PM38 °FChilly.20 mph82%29.73 "HgN/A
8:00 PM38 °FChilly.20 mph77%29.71 "HgN/A
7:00 PM43 °FQuite cool.22 mph63%29.67 "HgN/A
6:00 PM44 °FQuite cool.21 mph63%29.67 "HgN/A
5:00 PM44 °FQuite cool.22 mph64%29.67 "HgN/A
4:00 PM43 °FQuite cool.23 mph61%29.68 "HgN/A
3:00 PM43 °FQuite cool.25 mph58%29.67 "HgN/A
2:00 PM42 °FQuite cool.21 mph59%29.71 "HgN/A
11:00 AM38 °FChilly.21 mph64%29.81 "HgN/A
10:00 AM38 °FChilly.20 mph64%29.85 "HgN/A
9:00 AM37 °FChilly.17 mph66%29.88 "HgN/A
8:00 AM37 °FChilly.16 mph68%29.91 "HgN/A
7:00 AM37 °FChilly.20 mph67%29.93 "HgN/A
6:00 AM36 °FChilly.16 mph66%29.95 "HgN/A
5:00 AM37 °FChilly.21 mph64%29.97 "HgN/A
4:00 AM36 °FChilly.17 mph68%29.99 "HgN/A
3:00 AM36 °FChilly.17 mph66%30.01 "HgN/A
Weather by CustomWeather, © 2014

See weather overviewHow to use our weather pages